Weather History for Makkah, Saudi Arabia

Change the Weather History Date:

Friday, January 18, 2013

  Actual Average Record
Temperature  
Mean Temperature 84 °F -  
Max Temperature 92 °F 83 °F 95 °F (2009)
Min Temperature 75 °F 64 °F 50 °F (1998)
Cooling Degree Days 18    
Growing Degree Days 34 (Base 50)    
Moisture  
Dew Point 68 °F    
Average Humidity 62    
Maximum Humidity 83    
Minimum Humidity 31    
Precipitation  
Precipitation 0.00 in - - ()
Sea Level Pressure  
Sea Level Pressure 29.89 in    
Wind  
Wind Speed 1 mph ()    
Max Wind Speed 7 mph    
Max Gust Speed -    
Visibility 5.3 miles    
Events      
Averages and records for this station are not official NWS values.
T = Trace of Precipitation, MM = Missing Value Source: Averaged Metar Reports

Daily Weather History Graph

Daily Weather History Graph

Search for Another Location

Airport:

Trip Planner

Search our weather history database for the weather conditions in past years. The results will help you decide how hot, cold, wet, or windy it might be!

Date:

Astronomy

Jan. 18, 2013 Rise Set
Actual Time 7:00 AM AST 6:00 PM AST
Civil Twilight 6:36 AM AST 6:24 PM AST
Nautical Twilight 6:09 AM AST 6:51 PM AST
Astronomical Twilight 5:42 AM AST 7:18 PM AST
Moon 11:25 AM AST (1/18) No Moon Set
Length of Visible Light 11h 47m
Length of Day
11h 00m
Waxing Crescent, 44% of the Moon is Illuminated
Jan 18
Waxing Crescent
Jan 19
First Quarter
Jan 27
Full
Feb 3
Last Quarter
Feb 10
New

Hourly Weather History & Observations

Time (AST) Temp. Heat Index Dew Point Humidity Pressure Visibility Wind Dir Wind Speed Gust Speed Precip Events Conditions
12:00 AM 78 °F - 73 °F 82% 29.87 in 6 mi Calm Calm - -   Scattered Clouds
12:00 AM 78.8 °F - 73.4 °F 83% 29.92 in 6.2 mi Calm Calm - N/A   Partly Cloudy
1:00 AM 78.8 °F - 73.4 °F 83% 29.89 in 6.2 mi Calm Calm - N/A   Partly Cloudy
2:00 AM 78.8 °F - 73.4 °F 83% 29.92 in 6.2 mi Calm Calm - N/A   Partly Cloudy
3:00 AM 78 °F - 72 °F 75% 29.86 in 6 mi Calm Calm - -   Scattered Clouds
3:00 AM 78.8 °F - 71.6 °F 78% 29.89 in 6.2 mi Calm Calm - N/A   Partly Cloudy
4:00 AM 77.0 °F - 71.6 °F 83% 29.89 in 6.2 mi Calm Calm - N/A   Partly Cloudy
5:00 AM 77.0 °F - 71.6 °F 83% 29.89 in - Calm Calm - N/A   Clear
6:00 AM 77 °F - 70 °F 73% 29.87 in 6 mi Calm Calm - -   Scattered Clouds
6:00 AM 77.0 °F - 69.8 °F 78% 29.89 in - Calm Calm - N/A   Clear
7:00 AM 77.0 °F - 69.8 °F 78% 29.92 in - Calm Calm - N/A   Clear
8:00 AM 77.0 °F - 69.8 °F 78% 29.95 in 6.2 mi Calm Calm - N/A   Scattered Clouds
9:00 AM 78 °F - 68 °F 64% 29.93 in 6 mi Calm Calm - -   Scattered Clouds
9:00 AM 78.8 °F - 68.0 °F 69% 29.95 in 6.2 mi Calm Calm - N/A   Partly Cloudy
10:00 AM 82.4 °F 86.3 °F 69.8 °F 66% 29.95 in - Calm Calm - N/A   Clear
11:00 AM 86.0 °F 90.4 °F 69.8 °F 58% 29.95 in - Calm Calm - N/A   Clear
12:00 PM 88 °F - 66 °F 39% 29.88 in 6 mi SSW 4.6 mph - -   Partly Cloudy
12:00 PM 87.8 °F 90.4 °F 66.2 °F 49% 29.92 in 6.2 mi SSW 4.6 mph - N/A   Scattered Clouds
1:00 PM 89.6 °F 92.2 °F 66.2 °F 46% 29.89 in 6.2 mi West 4.6 mph - N/A   Scattered Clouds
2:00 PM 89.6 °F 92.2 °F 66.2 °F 46% 29.86 in 6.2 mi West 4.6 mph - N/A   Scattered Clouds
3:00 PM 91 °F - 64 °F 31% 29.80 in 5 mi WSW 4.6 mph - -   Widespread Dust
3:00 PM 91.4 °F 93.2 °F 64.4 °F 41% 29.83 in 5.0 mi WSW 4.6 mph - N/A   Scattered Clouds
4:00 PM 91.4 °F 92.1 °F 62.6 °F 38% 29.83 in 4.3 mi SW 5.8 mph - N/A   Partly Cloudy
5:00 PM 89.6 °F 89.5 °F 60.8 °F 38% 29.83 in 3.7 mi SW 4.6 mph - N/A   Scattered Clouds
6:00 PM 86 °F - 64 °F 39% 29.83 in 4 mi SSW 6.9 mph - -   Widespread Dust
6:00 PM 86.0 °F 87.3 °F 64.4 °F 48% 29.86 in 3.7 mi SSW 6.9 mph - N/A   Clear
7:00 PM 84.2 °F 85.6 °F 64.4 °F 51% 29.89 in 3.7 mi SSW 6.9 mph - N/A   Clear
8:00 PM 82.4 °F 84.6 °F 66.2 °F 58% 29.89 in 4.3 mi South 3.5 mph - N/A   Clear
9:00 PM 81 °F - 66 °F 52% 29.88 in 4 mi South 3.5 mph - -   Widespread Dust
9:00 PM 80.6 °F 82.7 °F 66.2 °F 61% 29.92 in 4.3 mi South 3.5 mph - N/A   Clear
10:00 PM 80.6 °F 82.7 °F 66.2 °F 61% 29.95 in 5.0 mi Calm Calm - N/A   Partly Cloudy
11:00 PM 78.8 °F - 66.2 °F 65% 29.95 in 5.0 mi Calm Calm - N/A   Partly Cloudy